Time,TemperatureF,DewpointF,PressureIn,WindDirection,WindDirectionDegrees,WindSpeedMPH,WindSpeedGustMPH,Humidity,HourlyPrecipIn,Conditions,Clouds,dailyrainin,SoftwareType,DateUTC
2013-02-19 00:02:00,14.0,3.0,30.05,North,0,0.0,-999.0,61,-99.99,,,-99.99,,2013-02-19 05:02:00,
2013-02-19 00:12:00,16.0,1.0,30.05,East,100,3.0,-999.0,52,-99.99,,,-99.99,,2013-02-19 05:12:00,
2013-02-19 00:22:00,18.0,1.0,30.05,ESE,110,3.0,-999.0,48,-99.99,,,-99.99,,2013-02-19 05:22:00,
2013-02-19 00:32:00,18.0,1.0,30.04,North,0,0.0,-999.0,48,-99.99,,,-99.99,,2013-02-19 05:32:00,
2013-02-19 00:43:00,18.0,1.0,30.04,North,0,0.0,-999.0,48,-99.99,,,-99.99,,2013-02-19 05:43:00,
2013-02-19 00:52:00,18.0,5.0,30.04,ENE,60,3.0,-999.0,57,-99.99,,,-99.99,,2013-02-19 05:52:00,
2013-02-19 01:03:00,18.0,5.0,30.04,ENE,60,3.0,-999.0,57,-99.99,,,-99.99,,2013-02-19 06:03:00,
2013-02-19 01:12:00,19.0,5.0,30.04,North,0,0.0,-999.0,52,-99.99,,,-99.99,,2013-02-19 06:12:00,
2013-02-19 01:22:00,19.0,7.0,30.05,East,80,3.0,-999.0,57,-99.99,,,-99.99,,2013-02-19 06:22:00,
2013-02-19 01:32:00,19.0,5.0,30.05,East,80,3.0,-999.0,52,-99.99,,,-99.99,,2013-02-19 06:32:00,
2013-02-19 01:42:00,19.0,3.0,30.05,East,80,3.0,-999.0,48,-99.99,,,-99.99,,2013-02-19 06:42:00,
2013-02-19 01:52:00,19.0,3.0,30.04,ENE,70,3.0,-999.0,48,-99.99,,,-99.99,,2013-02-19 06:52:00,
2013-02-19 02:02:00,19.0,3.0,30.04,ENE,70,3.0,-999.0,48,-99.99,,,-99.99,,2013-02-19 07:02:00,
2013-02-19 02:11:00,19.0,5.0,30.04,ENE,70,5.0,-999.0,52,-99.99,,,-99.99,,2013-02-19 07:11:00,
2013-02-19 02:22:00,19.0,5.0,30.02,ENE,70,6.0,-999.0,52,-99.99,,,-99.99,,2013-02-19 07:22:00,
2013-02-19 02:32:00,19.0,5.0,30.01,ENE,70,6.0,-999.0,52,-99.99,,,-99.99,,2013-02-19 07:32:00,
2013-02-19 02:42:00,19.0,5.0,30.01,East,80,6.0,-999.0,52,-99.99,,,-99.99,,2013-02-19 07:42:00,
2013-02-19 02:52:00,19.0,5.0,30.00,ENE,70,7.0,-999.0,52,-99.99,,,-99.99,,2013-02-19 07:52:00,
2013-02-19 03:02:00,19.0,5.0,30.00,ENE,70,7.0,-999.0,52,-99.99,,,-99.99,,2013-02-19 08:02:00,
2013-02-19 03:11:00,19.0,5.0,29.99,East,80,7.0,-999.0,52,-99.99,,,-99.99,,2013-02-19 08:11:00,
2013-02-19 03:21:00,21.0,5.0,29.98,ENE,70,6.0,-999.0,48,-99.99,,,-99.99,,2013-02-19 08:21:00,
2013-02-19 03:32:00,21.0,5.0,29.98,East,80,6.0,-999.0,48,-99.99,,,-99.99,,2013-02-19 08:32:00,
2013-02-19 03:42:00,21.0,5.0,29.98,ENE,70,5.0,-999.0,48,-99.99,,,-99.99,,2013-02-19 08:42:00,
2013-02-19 03:52:00,21.0,5.0,29.96,East,80,6.0,-999.0,48,-99.99,,,-99.99,,2013-02-19 08:52:00,
2013-02-19 04:02:00,21.0,5.0,29.96,East,80,6.0,-999.0,48,-99.99,,,-99.99,,2013-02-19 09:02:00,
2013-02-19 04:11:00,21.0,5.0,29.96,ENE,70,6.0,-999.0,48,-99.99,,,-99.99,,2013-02-19 09:11:00,
2013-02-19 04:22:00,21.0,5.0,29.96,ENE,70,6.0,-999.0,48,-99.99,,,-99.99,,2013-02-19 09:22:00,
2013-02-19 04:32:00,21.0,5.0,29.95,ENE,70,6.0,-999.0,48,-99.99,,,-99.99,,2013-02-19 09:32:00,
2013-02-19 04:42:00,21.0,5.0,29.95,East,80,6.0,-999.0,48,-99.99,,,-99.99,,2013-02-19 09:42:00,
2013-02-19 04:52:00,21.0,7.0,29.94,ENE,70,6.0,-999.0,53,-99.99,,,-99.99,,2013-02-19 09:52:00,
2013-02-19 05:02:00,21.0,7.0,29.94,ENE,70,6.0,-999.0,53,-99.99,,,-99.99,,2013-02-19 10:02:00,
2013-02-19 05:11:00,21.0,7.0,29.93,ENE,70,6.0,-999.0,53,-99.99,,,-99.99,,2013-02-19 10:11:00,
2013-02-19 05:22:00,21.0,7.0,29.92,East,80,6.0,-999.0,53,-99.99,,,-99.99,,2013-02-19 10:22:00,
2013-02-19 05:32:00,21.0,7.0,29.91,East,80,5.0,-999.0,53,-99.99,,,-99.99,,2013-02-19 10:32:00,
2013-02-19 05:42:00,21.0,7.0,29.91,East,80,3.0,-999.0,53,-99.99,,,-99.99,,2013-02-19 10:42:00,
2013-02-19 05:51:00,21.0,9.0,29.90,ENE,60,7.0,-999.0,57,-99.99,,,-99.99,,2013-02-19 10:51:00,
2013-02-19 06:01:00,21.0,9.0,29.90,ENE,60,7.0,-999.0,57,-99.99,,,-99.99,,2013-02-19 11:01:00,
2013-02-19 06:11:00,21.0,9.0,29.89,NE,50,3.0,-999.0,57,-99.99,,,-99.99,,2013-02-19 11:11:00,
2013-02-19 06:22:00,21.0,9.0,29.88,ENE,60,6.0,-999.0,57,-99.99,,,-99.99,,2013-02-19 11:22:00,
2013-02-19 06:32:00,21.0,9.0,29.88,ENE,70,6.0,-999.0,57,-99.99,,,-99.99,,2013-02-19 11:32:00,
2013-02-19 06:42:00,21.0,9.0,29.87,East,80,6.0,-999.0,57,-99.99,,,-99.99,,2013-02-19 11:42:00,
2013-02-19 06:52:00,21.0,9.0,29.86,ENE,70,6.0,-999.0,57,-99.99,,,-99.99,,2013-02-19 11:52:00,
2013-02-19 07:02:00,21.0,9.0,29.86,ENE,70,6.0,-999.0,57,-99.99,,,-99.99,,2013-02-19 12:02:00,
2013-02-19 07:12:00,21.0,9.0,29.85,ENE,70,7.0,-999.0,57,-99.99,,,-99.99,,2013-02-19 12:12:00,
2013-02-19 07:22:00,21.0,9.0,29.84,ENE,70,7.0,-999.0,57,-99.99,,,-99.99,,2013-02-19 12:22:00,
2013-02-19 07:32:00,21.0,9.0,29.83,ENE,70,7.0,-999.0,57,-99.99,,,-99.99,,2013-02-19 12:32:00,
2013-02-19 07:42:00,21.0,9.0,29.83,ENE,70,7.0,-999.0,57,-99.99,,,-99.99,,2013-02-19 12:42:00,
2013-02-19 07:52:00,21.0,9.0,29.83,ENE,60,7.0,-999.0,57,-99.99,,,-99.99,,2013-02-19 12:52:00,
2013-02-19 08:02:00,21.0,9.0,29.83,ENE,60,7.0,-999.0,57,-99.99,,,-99.99,,2013-02-19 13:02:00,
2013-02-19 08:11:00,21.0,9.0,29.82,ENE,70,7.0,-999.0,57,-99.99,,,-99.99,,2013-02-19 13:11:00,
2013-02-19 08:22:00,21.0,9.0,29.80,ENE,70,8.0,-999.0,57,-99.99,,,-99.99,,2013-02-19 13:22:00,
2013-02-19 08:32:00,21.0,9.0,29.80,ENE,60,6.0,-999.0,57,-99.99,,,-99.99,,2013-02-19 13:32:00,
2013-02-19 08:42:00,23.0,9.0,29.79,ENE,70,6.0,-999.0,53,-99.99,,,-99.99,,2013-02-19 13:42:00,
2013-02-19 08:52:00,23.0,10.0,29.79,ENE,70,7.0,-999.0,57,-99.99,,,-99.99,,2013-02-19 13:52:00,
2013-02-19 09:02:00,23.0,10.0,29.79,ENE,70,7.0,-999.0,57,-99.99,,,-99.99,,2013-02-19 14:02:00,
2013-02-19 09:11:00,25.0,10.0,29.77,ENE,70,7.0,-999.0,53,-99.99,,,-99.99,,2013-02-19 14:11:00,
2013-02-19 09:21:00,25.0,10.0,29.75,ENE,70,8.0,-999.0,53,-99.99,,,-99.99,,2013-02-19 14:21:00,
2013-02-19 09:33:00,25.0,12.0,29.73,ENE,70,7.0,-999.0,58,-99.99,,,-99.99,,2013-02-19 14:33:00,
2013-02-19 09:42:00,25.0,12.0,29.73,ENE,60,8.0,-999.0,58,-99.99,,,-99.99,,2013-02-19 14:42:00,
2013-02-19 09:52:00,27.0,12.0,29.74,NE,50,9.0,-999.0,54,-99.99,,,-99.99,,2013-02-19 14:52:00,
2013-02-19 10:02:00,27.0,12.0,29.74,NE,50,9.0,-999.0,54,-99.99,,,-99.99,,2013-02-19 15:02:00,
2013-02-19 10:11:00,27.0,14.0,29.73,ENE,60,8.0,-999.0,58,-99.99,,,-99.99,,2013-02-19 15:11:00,
2013-02-19 10:21:00,27.0,14.0,29.71,ENE,60,8.0,-999.0,58,-99.99,,,-99.99,,2013-02-19 15:21:00,
2013-02-19 10:32:00,27.0,14.0,29.72,NE,50,9.0,-999.0,58,-99.99,,,-99.99,,2013-02-19 15:32:00,
2013-02-19 10:42:00,27.0,16.0,29.73,NE,40,6.0,-999.0,63,-99.99,,,-99.99,,2013-02-19 15:42:00,
2013-02-19 10:52:00,28.0,16.0,29.71,ENE,60,7.0,-999.0,58,-99.99,,,-99.99,,2013-02-19 15:52:00,
2013-02-19 11:02:00,28.0,16.0,29.71,ENE,60,7.0,-999.0,58,-99.99,,,-99.99,,2013-02-19 16:02:00,
2013-02-19 11:11:00,30.0,16.0,29.70,ENE,60,8.0,-999.0,54,-99.99,,,-99.99,,2013-02-19 16:11:00,
2013-02-19 11:22:00,32.0,16.0,29.68,ENE,60,8.0,-999.0,50,-99.99,,,-99.99,,2013-02-19 16:22:00,
2013-02-19 11:32:00,30.0,18.0,29.69,NE,50,6.0,-999.0,59,-99.99,,,-99.99,,2013-02-19 16:32:00,
2013-02-19 11:42:00,30.0,18.0,29.69,NE,40,6.0,-999.0,59,-99.99,,,-99.99,,2013-02-19 16:42:00,
2013-02-19 11:51:00,32.0,18.0,29.69,NE,50,6.0,-999.0,54,-99.99,,,-99.99,,2013-02-19 16:51:00,
2013-02-19 12:01:00,32.0,18.0,29.69,NE,50,6.0,-999.0,54,-99.99,,,-99.99,,2013-02-19 17:01:00,
2013-02-19 12:11:00,32.0,18.0,29.67,NE,50,7.0,-999.0,54,-99.99,,,-99.99,,2013-02-19 17:11:00,
2013-02-19 12:21:00,32.0,18.0,29.67,NE,40,5.0,-999.0,54,-99.99,,,-99.99,,2013-02-19 17:21:00,
2013-02-19 12:32:00,32.0,18.0,29.67,North,350,5.0,-999.0,54,-99.99,,,-99.99,,2013-02-19 17:32:00,
2013-02-19 12:42:00,32.0,18.0,29.66,North,10,6.0,-999.0,54,-99.99,,,-99.99,,2013-02-19 17:42:00,
2013-02-19 12:52:00,32.0,18.0,29.66,ENE,70,3.0,-999.0,54,-99.99,,,-99.99,,2013-02-19 17:52:00,
2013-02-19 13:01:00,32.0,18.0,29.66,ENE,70,3.0,-999.0,54,-99.99,,,-99.99,,2013-02-19 18:01:00,
2013-02-19 13:11:00,32.0,19.0,29.66,NE,40,3.0,-999.0,59,-99.99,,,-99.99,,2013-02-19 18:11:00,
2013-02-19 13:21:00,32.0,23.0,29.64,ENE,70,3.0,-999.0,69,-99.99,,,-99.99,,2013-02-19 18:21:00,
2013-02-19 13:32:00,32.0,23.0,29.64,East,90,3.0,-999.0,69,-99.99,,,-99.99,,2013-02-19 18:32:00,
2013-02-19 13:42:00,32.0,23.0,29.64,ESE,110,7.0,-999.0,69,-99.99,,,-99.99,,2013-02-19 18:42:00,
2013-02-19 13:52:00,32.0,23.0,29.63,East,100,3.0,-999.0,69,-99.99,,,-99.99,,2013-02-19 18:52:00,
2013-02-19 14:01:00,32.0,25.0,29.63,North,0,0.0,-999.0,74,-99.99,,,-99.99,,2013-02-19 19:01:00,
2013-02-19 14:11:00,32.0,27.0,29.63,East,100,5.0,-999.0,80,-99.99,,,-99.99,,2013-02-19 19:11:00,
2013-02-19 14:21:00,34.0,28.0,29.63,North,0,0.0,-999.0,80,-99.99,,,-99.99,,2013-02-19 19:21:00,
2013-02-19 14:32:00,32.0,28.0,29.62,East,80,3.0,-999.0,86,-99.99,,,-99.99,,2013-02-19 19:32:00,
2013-02-19 14:42:00,34.0,30.0,29.62,ENE,70,3.0,-999.0,86,-99.99,,,-99.99,,2013-02-19 19:42:00,
2013-02-19 14:51:00,34.0,30.0,29.61,North,0,0.0,-999.0,86,-99.99,,,-99.99,,2013-02-19 19:51:00,
2013-02-19 15:02:00,34.0,30.0,29.61,North,0,0.0,-999.0,86,-99.99,,,-99.99,,2013-02-19 20:02:00,
2013-02-19 15:12:00,34.0,32.0,29.61,North,0,0.0,-999.0,93,-99.99,,,-99.99,,2013-02-19 20:12:00,
2013-02-19 15:21:00,34.0,34.0,29.60,North,0,0.0,-999.0,100,-99.99,,,-99.99,,2013-02-19 20:21:00,
2013-02-19 15:32:00,36.0,36.0,29.59,SSE,160,3.0,-999.0,100,-99.99,,,-99.99,,2013-02-19 20:32:00,
2013-02-19 15:42:00,37.0,37.0,29.59,North,0,0.0,-999.0,100,-99.99,,,-99.99,,2013-02-19 20:42:00,
2013-02-19 15:52:00,37.0,37.0,29.58,South,180,5.0,-999.0,100,-99.99,,,-99.99,,2013-02-19 20:52:00,
2013-02-19 16:02:00,37.0,37.0,29.58,South,180,5.0,-999.0,100,-99.99,,,-99.99,,2013-02-19 21:02:00,
2013-02-19 16:11:00,37.0,37.0,29.58,South,180,5.0,-999.0,100,-99.99,,,-99.99,,2013-02-19 21:11:00,
2013-02-19 16:21:00,37.0,37.0,29.59,SSW,210,7.0,-999.0,100,-99.99,,,-99.99,,2013-02-19 21:21:00,
2013-02-19 16:32:00,37.0,37.0,29.58,SSW,200,9.0,-999.0,100,-99.99,,,-99.99,,2013-02-19 21:32:00,
2013-02-19 16:42:00,37.0,37.0,29.58,South,190,6.0,-999.0,100,-99.99,,,-99.99,,2013-02-19 21:42:00,
2013-02-19 16:51:00,36.0,36.0,29.57,South,180,7.0,-999.0,100,-99.99,,,-99.99,,2013-02-19 21:51:00,
2013-02-19 17:02:00,36.0,36.0,29.57,South,180,7.0,-999.0,100,-99.99,,,-99.99,,2013-02-19 22:02:00,
2013-02-19 17:11:00,36.0,36.0,29.58,SSW,210,7.0,-999.0,100,-99.99,,,-99.99,,2013-02-19 22:11:00,
2013-02-19 17:21:00,36.0,36.0,29.58,SSW,200,9.0,-999.0,100,-99.99,,,-99.99,,2013-02-19 22:21:00,
2013-02-19 17:32:00,36.0,36.0,29.58,SSW,210,6.0,-999.0,100,-99.99,,,-99.99,,2013-02-19 22:32:00,
2013-02-19 17:41:00,36.0,36.0,29.59,SSW,210,9.0,-999.0,100,-99.99,,,-99.99,,2013-02-19 22:41:00,
2013-02-19 17:52:00,36.0,36.0,29.59,SSW,210,7.0,-999.0,100,-99.99,,,-99.99,,2013-02-19 22:52:00,
2013-02-19 18:01:00,36.0,36.0,29.59,SSW,210,7.0,-999.0,100,-99.99,,,-99.99,,2013-02-19 23:01:00,
2013-02-19 18:11:00,36.0,36.0,29.60,SSW,200,7.0,-999.0,100,-99.99,,,-99.99,,2013-02-19 23:11:00,
2013-02-19 18:21:00,36.0,36.0,29.59,SSW,210,6.0,-999.0,100,-99.99,,,-99.99,,2013-02-19 23:21:00,
2013-02-19 18:32:00,34.0,34.0,29.59,SSW,210,6.0,-999.0,100,-99.99,,,-99.99,,2013-02-19 23:32:00,
2013-02-19 18:42:00,36.0,36.0,29.59,SW,220,5.0,-999.0,100,-99.99,,,-99.99,,2013-02-19 23:42:00,
2013-02-19 18:52:00,36.0,36.0,29.59,SSW,210,7.0,-999.0,100,-99.99,,,-99.99,,2013-02-19 23:52:00,
2013-02-19 19:01:00,36.0,36.0,29.59,SSW,210,7.0,-999.0,100,-99.99,,,-99.99,,2013-02-20 00:01:00,
2013-02-19 19:11:00,36.0,36.0,29.60,SW,230,10.0,-999.0,100,-99.99,,,-99.99,,2013-02-20 00:11:00,
2013-02-19 19:21:00,36.0,36.0,29.61,SW,230,10.0,-999.0,100,-99.99,,,-99.99,,2013-02-20 00:21:00,
2013-02-19 19:32:00,34.0,34.0,29.62,WSW,240,13.0,-999.0,100,-99.99,,,-99.99,,2013-02-20 00:32:00,
2013-02-19 19:42:00,34.0,34.0,29.62,WSW,240,21.0,29.0,100,-99.99,,,-99.99,,2013-02-20 00:42:00,
2013-02-19 19:52:00,34.0,34.0,29.63,WSW,250,18.0,29.0,100,-99.99,,,-99.99,,2013-02-20 00:52:00,
2013-02-19 20:02:00,34.0,34.0,29.63,WSW,250,18.0,29.0,100,-99.99,,,-99.99,,2013-02-20 01:02:00,
2013-02-19 20:11:00,34.0,34.0,29.62,West,260,16.0,24.0,100,-99.99,,,-99.99,,2013-02-20 01:11:00,
2013-02-19 20:21:00,34.0,34.0,29.63,West,260,14.0,-999.0,100,-99.99,,,-99.99,,2013-02-20 01:21:00,
2013-02-19 20:32:00,34.0,34.0,29.63,West,260,15.0,23.0,100,-99.99,,,-99.99,,2013-02-20 01:32:00,
2013-02-19 20:42:00,34.0,34.0,29.63,WSW,250,15.0,23.0,100,-99.99,,,-99.99,,2013-02-20 01:42:00,
2013-02-19 20:52:00,34.0,34.0,29.63,WSW,250,22.0,28.0,100,-99.99,,,-99.99,,2013-02-20 01:52:00,
2013-02-19 21:02:00,34.0,34.0,29.63,WSW,250,22.0,28.0,100,-99.99,,,-99.99,,2013-02-20 02:02:00,
2013-02-19 21:11:00,34.0,32.0,29.63,WSW,250,15.0,25.0,93,-99.99,,,-99.99,,2013-02-20 02:11:00,
2013-02-19 21:21:00,34.0,30.0,29.64,WSW,240,20.0,24.0,86,-99.99,,,-99.99,,2013-02-20 02:21:00,
2013-02-19 21:32:00,32.0,28.0,29.64,WSW,240,17.0,27.0,86,-99.99,,,-99.99,,2013-02-20 02:32:00,
2013-02-19 21:42:00,32.0,28.0,29.64,WSW,240,18.0,27.0,86,-99.99,,,-99.99,,2013-02-20 02:42:00,
2013-02-19 21:52:00,32.0,27.0,29.64,West,260,25.0,31.0,80,-99.99,,,-99.99,,2013-02-20 02:52:00,
2013-02-19 22:02:00,32.0,27.0,29.64,West,260,25.0,31.0,80,-99.99,,,-99.99,,2013-02-20 03:02:00,
2013-02-19 22:12:00,32.0,27.0,29.64,WSW,250,18.0,-999.0,80,-99.99,,,-99.99,,2013-02-20 03:12:00,
2013-02-19 22:22:00,30.0,27.0,29.63,WSW,250,18.0,27.0,86,-99.99,,,-99.99,,2013-02-20 03:22:00,
2013-02-19 22:32:00,30.0,27.0,29.63,WSW,250,21.0,28.0,86,-99.99,,,-99.99,,2013-02-20 03:32:00,
2013-02-19 22:42:00,30.0,27.0,29.63,WSW,250,21.0,28.0,86,-99.99,,,-99.99,,2013-02-20 03:42:00,
2013-02-19 22:52:00,30.0,25.0,29.63,WSW,250,21.0,31.0,80,-99.99,,,-99.99,,2013-02-20 03:52:00,
2013-02-19 23:01:00,30.0,25.0,29.63,WSW,250,21.0,31.0,80,-99.99,,,-99.99,,2013-02-20 04:01:00,
2013-02-19 23:11:00,30.0,25.0,29.63,WSW,250,20.0,35.0,80,-99.99,,,-99.99,,2013-02-20 04:11:00,
2013-02-19 23:21:00,30.0,25.0,29.63,WSW,250,18.0,28.0,80,-99.99,,,-99.99,,2013-02-20 04:21:00,
2013-02-19 23:32:00,30.0,25.0,29.63,WSW,240,17.0,-999.0,80,-99.99,,,-99.99,,2013-02-20 04:32:00,
2013-02-19 23:42:00,30.0,25.0,29.63,WSW,240,15.0,-999.0,80,-99.99,,,-99.99,,2013-02-20 04:42:00,
2013-02-19 23:52:00,30.0,25.0,29.63,SW,230,16.0,22.0,80,-99.99,,,-99.99,,2013-02-20 04:52:00,